Wind_Speed
56 58 58 59 62 63 65 68 70 64 68 62 68 69 69 70 67 67 55 49 54 53 54 56 50 52 50 60 64 62 61 58 54 53 53 53 54 55 56 58 59 60 58 58
56 56 57 60 64 68 69 70 74 77 81 69 70 76 78 72 71 67 64 71 68 59 55 55 57 59 60 61 58 59 58 57 57 56 55 54 52 48 49 51 51 53 52 53
38 38 38 41 58 57 65 68 63 52 69 74 80 81 79 79 81 78 73 71 65 62 62 59 61 63 62 59 59 58 58 59 60 59 59 59 55 54 53 53 53 51 56 56
41 40 45 43 40 47 46 42 42 42 59 72 69 70 68 63 71 69 62 66 68 71 71 69 65 63 62 64 66 63 65 66 65 66 65 63 62 62 63 60 57 54 56 61
46 46 46 46 40 43 43 43 42 47 38 46 57 58 58 54 57 57 56 56 64 61 58 59 60 61 61 65 67 66 67 67 68 69 64 58 55 53 55 55 55 58 61 67
49 53 53 46 44 32 34 41 35 35 33 39 40 46 53 49 51 55 56 50 50 62 60 56 53 55 56 60 61 60 65 63 61 62 53 52 51 50 50 56 57 56 60 62
36 40 42 38 36 36 42 43 37 37 37 36 46 43 42 44 42 40 45 45 48 50 50 52 51 48 49 49 50 53 52 51 57 54 53 52 50 48 52 58 60 63 64 69
39 40 43 32 37 35 36 36 42 42 37 36 48 42 40 40 41 44 43 41 46 48 47 47 47 45 41 38 41 41 42 41 39 41 42 46 44 49 55 56 63 66 64 49
37 40 40 40 41 39 43 48 48 48 42 45 53 45 39 37 38 39 38 39 41 43 43 35 34 33 36 33 32 28 32 33 33 37 39 37 47 47 44 48 43 28 20 20
41 39 38 36 32 33 36 39 38 39 41 49 51 42 38 34 33 33 32 32 32 34 31 30 31 30 28 31 31 18 26 31 27 16 21 20 13 25 19 13 11 11 17 24
25 15 21 23 26 30 32 33 35 36 34 31 33 34 33 27 26 25 22 28 33 34 31 30 27 25 27 26 18 17 14 21 20 20 23 24 26 24 19 15 17 18 21 25
18 20 24 26 27 26 31 32 31 26 23 21 23 25 27 24 22 22 17 19 21 27 29 31 27 25 25 25 19 18 24 17 18 21 24 26 20 19 19 20 22 24 27 29
22 22 26 27 32 31 33 30 26 25 18 15 17 21 24 25 23 21 20 19 20 21 21 26 30 29 29 29 23 18 16 15 19 19 18 18 20 23 24 26 26 26 29 32
30 34 32 32 28 29 32 28 24 23 16 13 11 16 20 20 17 18 19 18 20 27 28 26 26 31 30 29 30 24 19 16 15 14 17 18 22 25 24 25 29 32 33 33
25 30 36 33 31 33 30 29 27 22 21 16 14 15 17 18 18 19 17 18 20 22 28 26 24 30 28 24 22 18 16 18 18 18 21 22 24 28 28 29 29 30 31 31
38 37 30 23 20 22 23 29 31 31 28 25 23 21 21 21 20 22 22 21 21 20 18 26 29 28 30 21 19 15 15 18 20 22 22 23 26 25 23 23 24 27 29 30
35 20 23 23 24 24 23 21 31 31 33 32 30 32 29 27 26 31 28 24 21 21 21 19 15 15 18 20 20 15 15 18 20 21 23 26 23 22 24 24 26 27 29 32
21 18 24 25 15 17 18 20 23 27 25 27 31 32 33 31 30 27 22 21 19 17 15 14 14 12 18 17 21 20 22 20 20 23 24 21 22 23 23 25 26 29 32 36
13 20 22 19 10 8 9 9 4 11 20 21 18 17 20 20 19 18 18 16 15 17 17 17 17 16 16 17 17 17 19 22 21 19 20 20 21 23 24 26 29 32 34 36
9 14 16 6 4 7 11 9 7 7 6 6 9 12 12 12 13 13 14 15 14 13 15 15 16 17 17 16 17 17 16 17 18 18 19 20 22 24 26 29 31 33 36 38
9 12 8 3 1 4 6 9 10 5 7 4 2 5 7 10 12 13 13 10 9 11 12 15 14 12 11 11 13 14 14 16 17 18 19 21 24 26 29 31 33 35 37 39
10 10 9 7 6 6 8 9 8 7 6 6 7 10 10 11 14 13 10 9 8 7 8 9 9 9 9 9 10 13 15 17 18 19 21 23 25 28 29 31 34 36 40 42
13 9 9 9 12 13 12 12 10 9 8 11 7 8 9 10 12 11 7 7 7 8 8 8 8 9 10 11 13 15 16 17 19 21 23 25 27 29 31 33 35 38 41 44
16 12 10 10 11 13 14 13 13 10 10 7 6 10 11 10 9 8 8 9 11 11 11 12 13 12 12 13 15 17 18 19 21 23 25 27 29 31 33 35 37 39 42 45
18 17 14 10 11 13 13 12 10 8 10 11 12 12 12 12 11 12 13 14 15 15 16 15 13 14 15 15 17 18 20 22 24 25 28 30 32 33 35 37 39 41 44 47
22 20 19 18 15 13 13 15 15 14 13 15 17 18 17 17 17 17 17 17 18 18 17 16 17 17 17 17 19 20 22 24 25 27 30 32 34 36 37 39 41 43 46 48
28 24 22 22 20 19 18 17 15 18 19 20 22 22 23 22 22 22 22 21 22 21 20 20 21 20 20 20 21 21 23 24 26 28 31 34 37 38 39 40 42 45 47 50
Wind_Direction
267 265 264 261 255 255 255 256 258 252 258 249 256 261 267 267 267 264 260 242 236 238 239 240 239 236 245 268 277 280 281 280 277 273 268 267 269 268 266 267 269 272 276 278
272 271 269 266 263 262 261 259 259 257 258 253 259 262 265 265 267 267 267 266 262 262 263 263 264 267 271 273 274 277 280 280 280 279 279 278 278 277 273 276 278 269 273 272
267 268 269 265 271 269 266 265 269 273 266 249 254 261 266 273 270 272 274 267 262 262 264 267 267 267 270 271 270 271 273 275 275 276 278 280 280 280 281 279 279 276 274 276
265 261 259 265 266 269 275 274 270 269 269 263 264 267 268 271 274 277 280 281 281 277 274 275 277 279 280 279 277 279 280 279 280 279 278 278 277 278 276 277 278 275 275 273
263 264 267 267 275 277 276 274 265 269 269 262 265 266 266 271 267 271 274 277 281 283 281 280 282 283 283 283 284 285 284 285 283 283 284 282 280 275 275 274 269 266 263 264
268 270 273 278 279 273 264 262 278 273 274 274 269 266 262 257 261 269 271 271 275 278 283 281 280 281 281 282 282 282 283 284 284 284 277 273 270 264 261 257 260 262 262 258
265 268 268 277 275 271 265 275 267 264 265 264 268 267 263 261 261 262 264 266 265 271 273 276 278 277 276 276 276 278 278 273 276 275 271 264 258 251 248 250 251 252 259 259
271 273 273 280 276 275 279 271 268 264 263 263 266 261 259 257 256 262 265 261 259 266 268 273 277 278 276 276 278 276 268 267 257 253 250 253 262 250 251 258 255 254 258 261
267 272 278 274 274 271 265 267 270 269 263 255 257 261 259 260 261 263 268 266 265 268 264 266 273 270 268 266 268 269 254 249 241 276 245 260 244 250 260 247 249 251 251 255
271 277 280 282 279 275 277 281 285 283 276 265 263 259 258 258 263 262 262 266 268 265 258 257 259 264 266 277 254 258 264 260 240 236 232 235 240 226 230 237 255 263 261 257
275 299 287 279 281 283 287 289 288 287 286 275 259 249 253 252 256 258 266 271 266 262 262 257 255 258 259 261 251 269 234 253 247 243 258 260 273 272 266 270 264 258 260 261
270 270 274 284 286 284 288 290 294 294 283 274 259 244 244 241 254 259 252 268 270 264 262 253 254 259 263 270 277 261 261 258 275 271 276 276 275 281 281 279 271 268 269 274
285 290 277 274 281 283 286 295 288 284 287 280 264 258 246 246 262 257 268 268 275 276 280 253 250 259 265 278 273 277 273 275 277 284 280 276 275 274 279 282 278 280 284 285
293 301 314 308 301 279 272 275 286 287 275 266 251 241 244 250 258 266 267 272 283 279 275 275 268 261 266 273 276 273 271 272 269 273 272 268 268 272 279 287 286 286 286 283
317 314 310 308 294 290 272 253 255 262 257 241 246 243 248 259 266 263 268 269 290 268 269 266 260 258 257 266 264 265 266 269 264 270 264 268 274 280 284 287 285 281 280 281
321 315 309 298 297 296 283 258 249 246 246 242 239 249 251 251 257 262 265 267 281 269 268 255 264 253 248 245 231 231 233 251 266 269 268 275 285 290 288 284 283 284 286 291
318 313 306 300 296 296 287 280 250 244 243 244 246 242 242 249 260 260 260 266 264 268 273 248 248 259 231 238 236 234 246 260 264 267 278 284 282 282 284 286 289 290 292 294
318 344 334 328 292 295 289 285 251 237 240 241 244 245 247 247 255 259 250 253 262 261 253 241 241 223 207 241 238 248 251 258 267 273 277 276 280 283 287 290 292 293 295 297
342 343 340 328 321 338 345 349 329 245 237 240 237 232 226 227 231 237 244 253 263 260 248 235 222 217 233 232 231 240 251 258 264 270 273 279 284 289 291 292 294 297 299 302
326 324 336 345 35 59 45 40 59 75 97 142 182 190 192 205 225 238 249 260 256 237 227 223 221 219 219 228 245 251 256 262 268 275 283 287 289 291 293 296 299 303 303 303
290 322 339 335 264 11 12 21 29 45 72 63 137 190 220 239 240 239 244 242 228 222 221 221 220 222 229 240 250 258 269 277 282 286 288 289 291 294 297 300 302 304 306 308
300 301 323 299 274 282 297 321 331 324 286 308 282 257 236 217 212 227 211 195 188 192 204 211 221 232 241 256 274 282 284 285 286 288 291 293 294 298 300 302 305 308 310 312
323 294 301 302 291 285 292 298 301 290 288 304 281 225 232 211 205 200 204 217 222 228 232 234 238 251 264 271 282 286 286 286 289 293 296 297 300 301 303 306 308 310 313 315
320 320 286 288 296 289 294 300 311 289 287 278 234 202 196 202 214 222 233 244 250 251 246 244 250 255 266 282 290 293 292 292 294 297 299 301 304 306 307 308 310 313 314 316
336 324 309 304 288 285 292 292 300 286 263 227 216 220 224 229 236 240 246 250 251 246 245 248 254 267 277 286 293 294 294 295 297 299 302 305 307 308 310 311 313 315 316 318
318 320 318 308 293 290 280 270 274 274 258 240 240 243 240 241 248 252 254 254 250 248 251 255 265 274 278 284 290 294 296 298 300 302 303 304 306 309 311 313 313 316 317 320
297 297 299 300 299 290 280 275 275 263 261 258 248 248 248 247 249 251 254 257 254 252 255 260 270 274 275 281 289 294 297 298 299 302 303 304 306 308 308 311 314 316 318 320
Height
5553 5553 5551 5553 5557 5559 5558 5557 5552 5563 5554 5565 5563 5560 5558 5556 5554 5559 5558 5558 5561 5563 5565 5568 5571 5573 5575 5578 5578 5580 5581 5583 5584 5586 5586 5587 5587 5587 5586 5586 5586 5586 5585 5584
5534 5535 5534 5534 5539 5541 5541 5543 5540 5539 5536 5556 5549 5541 5540 5541 5539 5543 5546 5545 5546 5547 5549 5553 5556 5559 5560 5562 5563 5564 5565 5565 5565 5567 5569 5571 5573 5573 5572 5573 5572 5572 5571 5570
5521 5523 5521 5517 5525 5524 5525 5525 5523 5519 5523 5539 5532 5527 5525 5519 5523 5523 5523 5526 5530 5536 5537 5538 5539 5542 5544 5547 5548 5550 5551 5552 5552 5553 5555 5555 5556 5557 5557 5557 5556 5555 5556 5555
5508 5510 5504 5511 5513 5512 5511 5509 5507 5505 5506 5513 5511 5509 5508 5510 5509 5505 5506 5508 5510 5515 5519 5523 5525 5525 5526 5528 5530 5533 5534 5535 5536 5538 5541 5541 5542 5543 5543 5542 5542 5540 5539 5538
5495 5494 5494 5498 5506 5502 5496 5493 5493 5492 5494 5491 5494 5494 5495 5509 5487 5493 5497 5494 5496 5497 5500 5504 5505 5506 5509 5511 5510 5511 5514 5515 5516 5520 5521 5521 5522 5522 5522 5524 5524 5523 5522 5520
5486 5481 5479 5488 5490 5489 5483 5473 5489 5481 5478 5479 5479 5477 5486 5484 5478 5483 5484 5484 5483 5482 5485 5484 5489 5490 5491 5493 5493 5493 5495 5495 5495 5499 5499 5499 5502 5503 5504 5504 5505 5505 5503 5502
5473 5469 5469 5476 5474 5472 5467 5472 5472 5469 5467 5466 5464 5465 5471 5466 5467 5469 5469 5472 5471 5469 5470 5471 5474 5476 5476 5478 5478 5478 5478 5477 5478 5479 5480 5480 5480 5482 5484 5485 5487 5487 5485 5484
5463 5460 5457 5468 5461 5461 5457 5452 5452 5450 5451 5451 5450 5452 5454 5453 5453 5454 5457 5458 5458 5456 5457 5458 5459 5460 5459 5462 5461 5461 5460 5460 5461 5461 5462 5462 5466 5468 5469 5471 5471 5470 5470 5469
5452 5448 5448 5447 5446 5446 5442 5438 5438 5436 5436 5435 5433 5438 5441 5441 5442 5444 5444 5445 5444 5445 5446 5448 5449 5449 5448 5449 5449 5448 5447 5448 5451 5450 5452 5452 5452 5456 5455 5453 5455 5457 5459 5460
5436 5439 5434 5433 5431 5429 5427 5424 5422 5420 5419 5420 5420 5425 5428 5430 5433 5434 5435 5435 5435 5435 5435 5437 5439 5440 5440 5440 5441 5442 5441 5440 5442 5444 5442 5444 5445 5444 5448 5447 5448 5450 5453 5455
5426 5429 5426 5424 5423 5421 5418 5415 5412 5409 5407 5405 5406 5412 5417 5421 5424 5424 5426 5426 5427 5427 5428 5429 5430 5432 5432 5432 5432 5432 5432 5433 5435 5435 5436 5436 5438 5440 5441 5442 5444 5445 5446 5447
5423 5423 5420 5418 5418 5415 5411 5408 5405 5401 5399 5399 5400 5403 5409 5414 5417 5418 5419 5420 5419 5419 5419 5420 5423 5424 5424 5424 5424 5423 5424 5425 5425 5427 5427 5430 5433 5434 5436 5436 5437 5437 5437 5437
5417 5417 5413 5412 5409 5407 5404 5402 5400 5398 5396 5396 5398 5400 5403 5407 5409 5410 5411 5413 5412 5413 5413 5414 5416 5416 5417 5418 5419 5420 5420 5420 5420 5420 5423 5426 5428 5430 5430 5430 5430 5428 5427 5427
5411 5407 5404 5402 5399 5398 5396 5394 5393 5391 5391 5391 5393 5394 5397 5400 5402 5404 5405 5406 5405 5406 5406 5408 5410 5410 5412 5413 5413 5415 5416 5417 5418 5419 5420 5421 5423 5424 5423 5423 5422 5420 5418 5418
5405 5401 5396 5393 5389 5387 5386 5385 5385 5386 5386 5387 5388 5390 5392 5393 5395 5397 5399 5400 5400 5400 5401 5402 5403 5404 5406 5407 5409 5411 5412 5414 5415 5415 5416 5416 5417 5418 5415 5412 5412 5412 5412 5412
5397 5392 5387 5383 5379 5376 5374 5374 5374 5377 5379 5381 5383 5384 5386 5387 5390 5391 5392 5394 5395 5395 5394 5395 5396 5396 5398 5401 5404 5406 5408 5409 5409 5409 5410 5410 5410 5408 5408 5408 5408 5407 5405 5402
5388 5384 5380 5376 5372 5369 5366 5364 5364 5366 5369 5373 5376 5377 5378 5381 5383 5384 5386 5387 5388 5388 5388 5388 5389 5389 5391 5395 5398 5400 5401 5402 5402 5403 5404 5403 5403 5403 5403 5402 5401 5399 5396 5393
5383 5379 5374 5369 5366 5363 5360 5357 5355 5358 5361 5364 5366 5369 5371 5374 5376 5377 5379 5380 5381 5381 5382 5383 5384 5385 5388 5390 5393 5395 5396 5397 5397 5398 5398 5398 5397 5397 5396 5394 5392 5390 5388 5385
5379 5375 5371 5367 5363 5361 5358 5355 5352 5353 5355 5357 5359 5361 5364 5367 5370 5372 5374 5375 5375 5375 5376 5378 5379 5381 5384 5386 5388 5390 5391 5392 5392 5392 5392 5391 5390 5389 5388 5387 5385 5382 5379 5376
5377 5374 5370 5367 5365 5363 5361 5358 5356 5354 5354 5354 5356 5359 5362 5364 5366 5368 5369 5370 5370 5371 5372 5374 5376 5378 5380 5382 5384 5385 5386 5386 5386 5386 5386 5385 5384 5383 5381 5379 5377 5374 5370 5366
5375 5373 5370 5368 5366 5365 5363 5361 5359 5358 5357 5357 5358 5360 5361 5362 5363 5364 5365 5366 5367 5368 5370 5372 5374 5376 5377 5379 5380 5380 5381 5381 5381 5380 5380 5379 5377 5376 5374 5371 5368 5365 5360 5355
5372 5371 5370 5368 5366 5364 5363 5361 5360 5359 5358 5358 5358 5358 5358 5360 5361 5362 5363 5364 5365 5367 5369 5370 5371 5373 5374 5375 5375 5376 5376 5376 5375 5375 5374 5373 5371 5369 5366 5363 5359 5355 5350 5345
5370 5369 5367 5366 5364 5363 5361 5360 5359 5358 5357 5356 5355 5356 5357 5358 5359 5361 5362 5363 5364 5366 5366 5367 5368 5370 5370 5371 5372 5371 5371 5371 5370 5369 5368 5366 5364 5361 5358 5354 5350 5345 5340 5335
5369 5366 5364 5363 5361 5360 5359 5358 5357 5356 5355 5355 5354 5355 5356 5358 5359 5360 5360 5361 5362 5363 5364 5365 5366 5366 5367 5367 5367 5366 5365 5365 5364 5362 5361 5358 5356 5353 5349 5345 5340 5335 5330 5324
5367 5364 5362 5360 5358 5357 5356 5355 5355 5354 5354 5354 5354 5355 5355 5356 5356 5357 5358 5359 5359 5360 5361 5361 5362 5362 5362 5361 5361 5360 5359 5358 5357 5355 5353 5351 5347 5344 5340 5335 5331 5325 5319 5313
5365 5362 5360 5357 5355 5354 5353 5352 5351 5351 5351 5351 5352 5352 5352 5352 5353 5353 5354 5355 5355 5355 5356 5356 5356 5356 5356 5355 5354 5353 5352 5351 5349 5347 5345 5342 5339 5335 5330 5326 5320 5315 5309 5302
5358 5357 5355 5354 5352 5350 5348 5347 5346 5345 5346 5345 5346 5346 5347 5347 5347 5348 5348 5349 5349 5349 5349 5349 5349 5349 5349 5348 5347 5346 5344 5343 5341 5339 5336 5333 5329 5325 5320 5316 5310 5304 5297 5290